Edinburgh Airport, United Kingdom

12:05 AM BST on September 26, 2016 (GMT +0100)
Edinburgh Airport

Weather History for EGPH - October, 2014

Change the Weather History Date:

Sunday, October 26, 2014

  Actual Average Record
Temperature  
Mean Temperature 54 °F -  
Max Temperature 57 °F 53 °F 60 °F (2005)
Min Temperature 51 °F 40 °F 32 °F (1997)
Degree Days  
Heating Degree Days 11    
Growing Degree Days 4 (Base 50)    
Moisture  
Dew Point 48 °F    
Average Humidity 79    
Maximum Humidity 88    
Minimum Humidity 67    
Precipitation  
Precipitation 0.00 in - - ()
Sea Level Pressure  
Sea Level Pressure 29.64 in    
Wind  
Wind Speed 27 mph ()    
Max Wind Speed 37 mph    
Max Gust Speed 50 mph    
Visibility 6.2 miles    
Events Rain    
Averages and records for this station are not official NWS values.
T = Trace of Precipitation, MM = Missing Value Source: Averaged Metar Reports

Daily Weather History Graph

Daily Weather History Graph

Search for Another Location

Airport or City:

Trip Planner

Search our weather history database for the weather conditions in past years. The results will help you decide how hot, cold, wet, or windy it might be!

Date:

Astronomy

Oct. 26, 2014 Rise Set
Actual Time 7:07 AM GMT 4:46 PM GMT
Civil Twilight 6:28 AM GMT 5:25 PM GMT
Nautical Twilight 5:44 AM GMT 6:08 PM GMT
Astronomical Twilight 5:01 AM GMT 6:51 PM GMT
Moon 9:50 AM GMT (10/26) 6:25 PM GMT (10/26)
Length of Visible Light 10h 56m
Length of Day
9h 39m
Waxing Crescent, 7% of the Moon is Illuminated
Oct 26
Waxing Crescent
Oct 31
First Quarter
Nov 6
Full
Nov 14
Last Quarter
Nov 22
New

Hourly Weather History & Observations

Time (GMT) Temp. Dew Point Humidity Pressure Visibility Wind Dir Wind Speed Gust Speed Precip Events Conditions
12:20 AM 51.8 °F 44.6 °F 76% 29.65 in 6.2 mi SW 27.6 mph 41.4 mph N/A   Partly Cloudy
12:50 AM 51.8 °F 44.6 °F 76% 29.68 in 6.2 mi SW 28.8 mph 41.4 mph N/A   Partly Cloudy
1:20 AM 51.8 °F 44.6 °F 76% 29.65 in 6.2 mi SW 28.8 mph - N/A   Partly Cloudy
1:50 AM 53.6 °F 44.6 °F 72% 29.68 in 6.2 mi SW 31.1 mph - N/A   Mostly Cloudy
1:20 AM 53.6 °F 44.6 °F 72% 29.68 in 6.2 mi SW 31.1 mph - N/A   Mostly Cloudy
1:50 AM 53.6 °F 42.8 °F 67% 29.68 in 6.2 mi SW 32.2 mph 46.0 mph N/A   Mostly Cloudy
2:20 AM 53.6 °F 42.8 °F 67% 29.65 in 6.2 mi WSW 28.8 mph - N/A   Scattered Clouds
2:50 AM 53.6 °F 44.6 °F 72% 29.65 in 6.2 mi SW 27.6 mph 39.1 mph N/A   Scattered Clouds
3:20 AM 53.6 °F 44.6 °F 72% 29.65 in 6.2 mi WSW 27.6 mph 39.1 mph N/A   Mostly Cloudy
3:50 AM 53.6 °F 44.6 °F 72% 29.65 in 6.2 mi WSW 27.6 mph - N/A   Mostly Cloudy
4:20 AM 53.6 °F 44.6 °F 72% 29.65 in 6.2 mi WSW 28.8 mph 43.7 mph N/A   Scattered Clouds
4:50 AM 53.6 °F 44.6 °F 72% 29.65 in 6.2 mi WSW 29.9 mph 43.7 mph N/A   Partly Cloudy
5:20 AM 53.6 °F 46.4 °F 77% 29.65 in 6.2 mi WSW 31.1 mph 43.7 mph N/A   Mostly Cloudy
5:50 AM 53.6 °F 46.4 °F 77% 29.65 in 6.2 mi WSW 32.2 mph - N/A   Partly Cloudy
6:20 AM 53.6 °F 46.4 °F 77% 29.65 in 6.2 mi WSW 28.8 mph - N/A   Mostly Cloudy
6:50 AM 53.6 °F 46.4 °F 77% 29.62 in 6.2 mi WSW 32.2 mph - N/A   Scattered Clouds
7:20 AM 53.6 °F 46.4 °F 77% 29.62 in 6.2 mi WSW 28.8 mph 40.3 mph N/A   Partly Cloudy
7:50 AM 53.6 °F 46.4 °F 77% 29.62 in 6.2 mi WSW 28.8 mph 41.4 mph N/A   Scattered Clouds
8:20 AM 55.4 °F 46.4 °F 72% 29.62 in 6.2 mi SW 31.1 mph 48.3 mph N/A   Scattered Clouds
8:50 AM 55.4 °F 46.4 °F 72% 29.62 in 6.2 mi SW 31.1 mph 46.0 mph N/A   Scattered Clouds
9:20 AM 55.4 °F 46.4 °F 72% 29.62 in 6.2 mi SW 36.8 mph 49.5 mph N/A   Scattered Clouds
9:50 AM 55.4 °F 46.4 °F 72% 29.62 in 6.2 mi WSW 32.2 mph 48.3 mph N/A   Scattered Clouds
10:20 AM 57.2 °F 46.4 °F 67% 29.62 in 6.2 mi SW 35.7 mph 49.5 mph N/A   Scattered Clouds
10:50 AM 55.4 °F 46.4 °F 72% 29.62 in 6.2 mi SW 34.5 mph 48.3 mph N/A   Scattered Clouds
11:20 AM 55.4 °F 46.4 °F 72% 29.65 in 6.2 mi SW 29.9 mph 42.6 mph N/A   Mostly Cloudy
11:50 AM 55.4 °F 48.2 °F 77% 29.65 in 6.2 mi SW 28.8 mph - N/A Rain Light Rain
12:20 PM 53.6 °F 50.0 °F 88% 29.62 in 6.2 mi SW 28.8 mph - N/A Rain Light Rain
12:50 PM 53.6 °F 50.0 °F 88% 29.62 in 5.6 mi SW 28.8 mph 41.4 mph N/A Rain Light Rain
1:20 PM 53.6 °F 50.0 °F 88% 29.62 in 6.2 mi SW 26.5 mph - N/A   Scattered Clouds
1:50 PM 55.4 °F 50.0 °F 82% 29.62 in 6.2 mi SW 31.1 mph 43.7 mph N/A Rain Light Rain
2:20 PM 55.4 °F 50.0 °F 82% 29.62 in 6.2 mi SW 31.1 mph - N/A Rain Light Rain Showers
2:50 PM 53.6 °F 50.0 °F 88% 29.62 in 6.2 mi WSW 31.1 mph 43.7 mph N/A Rain Light Rain Showers
3:20 PM 53.6 °F 50.0 °F 88% 29.62 in 6.2 mi SW 26.5 mph - N/A Rain Light Rain Showers
3:50 PM 53.6 °F 50.0 °F 88% 29.62 in 6.2 mi WSW 24.2 mph - N/A Rain Light Rain Showers
4:20 PM 55.4 °F 51.8 °F 88% 29.62 in 6.2 mi WSW 25.3 mph - N/A Rain Light Rain Showers
4:50 PM 55.4 °F 51.8 °F 88% 29.62 in 6.2 mi WSW 24.2 mph - N/A Rain Light Rain Showers
5:20 PM 55.4 °F 51.8 °F 88% 29.62 in 6.2 mi SW 24.2 mph - N/A Rain Light Rain
5:50 PM 55.4 °F 51.8 °F 88% 29.65 in 6.2 mi WSW 28.8 mph - N/A Rain Light Rain
6:20 PM 57.2 °F 51.8 °F 82% 29.65 in 6.2 mi SW 28.8 mph - N/A Rain Light Rain
6:50 PM 55.4 °F 51.8 °F 88% 29.65 in 6.2 mi SW 26.5 mph - N/A Rain Light Rain
7:20 PM 55.4 °F 51.8 °F 88% 29.68 in 6.2 mi SW 26.5 mph - N/A Rain Light Rain
7:50 PM 55.4 °F 51.8 °F 88% 29.68 in 6.2 mi WSW 25.3 mph 36.8 mph N/A Rain Light Rain
8:20 PM 55.4 °F 51.8 °F 88% 29.68 in 6.2 mi WSW 27.6 mph - N/A Rain Light Rain
8:50 PM 55.4 °F 51.8 °F 88% 29.68 in 6.2 mi WSW 27.6 mph - N/A Rain Light Rain
9:20 PM 55.4 °F 51.8 °F 88% 29.68 in 6.2 mi WSW 24.2 mph - N/A Rain Light Rain
9:50 PM 55.4 °F 51.8 °F 88% 29.68 in 6.2 mi WSW 27.6 mph - N/A Rain Light Rain
10:20 PM 57.2 °F 51.8 °F 82% 29.65 in 6.2 mi WSW 29.9 mph 42.6 mph N/A Rain Light Rain
10:50 PM 57.2 °F 51.8 °F 82% 29.65 in 6.2 mi WSW 28.8 mph - N/A   Scattered Clouds